Schneifelwetter: Wetterstation Hallschlag, 537 m . NN
Wetterdaten: Samstag, 28.06.2008
Datum Zeit Temp. A. Temp. 2 Feuchte A. Luftdruck Regen Wind Richtung Richtung Sonnenschein Helligkeit T Regen Taupunkt Windchill
28.06.2008 00:01 12,1 C 11,6 C 92 % 1020 hPa 0,0 l/m 13,1 km/h (3 Bft) W-SW45 245 0 min 0 lux 0,00 min 10,8 C 8,4 C
28.06.2008 00:16 12,0 C 11,6 C 93 % 1020 hPa 0,0 l/m 14,1 km/h (3 Bft) W-SW22.5 255 0 min 0 lux 0,00 min 10,9 C 7,9 C
28.06.2008 00:31 12,1 C 11,8 C 94 % 1020 hPa 0,0 l/m 17,3 km/h (3 Bft) W-SW22.5 255 0 min 0 lux 0,00 min 11,2 C 6,9 C
28.06.2008 00:46 12,4 C 12,0 C 94 % 1020 hPa 0,0 l/m 13,6 km/h (3 Bft) W-SW45 240 0 min 0 lux 0,00 min 11,5 C 8,6 C
28.06.2008 01:01 12,6 C 12,2 C 94 % 1020 hPa 0,0 l/m 16,7 km/h (3 Bft) W-SW45 240 0 min 0 lux 0,00 min 11,7 C 7,7 C
28.06.2008 01:16 12,8 C 12,3 C 94 % 1019 hPa 0,0 l/m 21,8 km/h (4 Bft) W-SW22.5 250 0 min 0 lux 0,00 min 11,9 C 6,4 C
28.06.2008 01:31 12,7 C 12,2 C 93 % 1019 hPa 0,0 l/m 17,9 km/h (3 Bft) W-SW22.5 250 0 min 0 lux 0,00 min 11,6 C 7,4 C
28.06.2008 01:46 12,7 C 12,4 C 94 % 1019 hPa 0,0 l/m 15,1 km/h (3 Bft) SW45 235 0 min 0 lux 0,00 min 11,8 C 8,4 C
28.06.2008 02:01 12,8 C 12,5 C 94 % 1019 hPa 0,0 l/m 16,6 km/h (3 Bft) SW45 230 0 min 0 lux 0,00 min 11,9 C 8,0 C
28.06.2008 02:16 13,0 C 12,6 C 94 % 1019 hPa 0,0 l/m 20,0 km/h (4 Bft) SW45 235 0 min 0 lux 0,00 min 12,1 C 7,2 C
28.06.2008 02:31 13,0 C 12,8 C 93 % 1019 hPa 0,0 l/m 28,8 km/h (4 Bft) W-SW22.5 250 0 min 0 lux 0,00 min 11,9 C 5,1 C
28.06.2008 02:46 13,0 C 12,9 C 93 % 1019 hPa 0,0 l/m 27,3 km/h (4 Bft) W-SW45 245 0 min 0 lux 0,00 min 11,9 C 5,4 C
28.06.2008 03:01 13,0 C 12,9 C 94 % 1019 hPa 0,0 l/m 20,7 km/h (4 Bft) W-SW45 245 0 min 0 lux 0,00 min 12,1 C 7,0 C
28.06.2008 03:17 13,1 C 12,9 C 94 % 1019 hPa 0,0 l/m 25,7 km/h (4 Bft) SW45 235 0 min 0 lux 0,00 min 12,2 C 5,9 C
28.06.2008 03:32 13,0 C 12,8 C 94 % 1019 hPa 0,0 l/m 27,4 km/h (4 Bft) W-SW45 250 0 min 0 lux 0,00 min 12,1 C 5,4 C
28.06.2008 03:47 13,0 C 12,8 C 93 % 1019 hPa 0,0 l/m 24,3 km/h (4 Bft) W-SW22.5 255 0 min 0 lux 0,00 min 11,9 C 6,1 C
28.06.2008 04:02 13,0 C 12,8 C 94 % 1019 hPa 0,0 l/m 27,8 km/h (4 Bft) W-SW45 255 0 min 0 lux 0,00 min 12,1 C 5,3 C
28.06.2008 04:17 13,0 C 12,8 C 93 % 1019 hPa 0,0 l/m 28,5 km/h (4 Bft) W-SW67.5 245 0 min 0 lux 0,00 min 11,9 C 5,2 C
28.06.2008 04:32 13,0 C 12,9 C 94 % 1019 hPa 0,0 l/m 24,3 km/h (4 Bft) W-SW67.5 245 0 min 0 lux 0,00 min 12,1 C 6,1 C
28.06.2008 04:47 13,1 C 13,0 C 93 % 1019 hPa 0,0 l/m 23,1 km/h (4 Bft) W-SW45 240 0 min 0 lux 0,00 min 12,0 C 6,5 C
28.06.2008 05:02 13,1 C 12,9 C 93 % 1019 hPa 0,0 l/m 27,5 km/h (4 Bft) W-SW22.5 250 0 min 0 lux 0,00 min 12,0 C 5,5 C
28.06.2008 05:17 13,0 C 12,8 C 94 % 1019 hPa 0,0 l/m 43,6 km/h (6 Bft) W-SW67.5 255 0 min 50 lux 0,00 min 12,1 C 2,9 C
28.06.2008 05:32 12,9 C 12,7 C 95 % 1019 hPa 0,0 l/m 31,0 km/h (5 Bft) W-SW45 250 0 min 168 lux 0,00 min 12,1 C 4,6 C
28.06.2008 05:47 12,8 C 12,7 C 95 % 1018 hPa 0,0 l/m 28,1 km/h (4 Bft) SW45 235 0 min 254 lux 0,00 min 12,0 C 5,0 C
28.06.2008 06:02 12,8 C 12,7 C 96 % 1018 hPa 0,3 l/m 22,5 km/h (4 Bft) W-SW45 245 0 min 869 lux 15,00 min 12,2 C 6,2 C
28.06.2008 06:17 12,9 C 12,8 C 96 % 1019 hPa 0,0 l/m 29,3 km/h (5 Bft) SW45 235 0 min 1,60 klux 0,00 min 12,3 C 4,9 C
28.06.2008 06:32 12,8 C 12,8 C 96 % 1018 hPa 0,3 l/m 18,8 km/h (3 Bft) SW45 230 0 min 1,25 klux 15,00 min 12,2 C 7,3 C
28.06.2008 06:47 12,9 C 12,8 C 96 % 1018 hPa 0,0 l/m 27,0 km/h (4 Bft) W-SW45 240 0 min 2,08 klux 0,00 min 12,3 C 5,3 C
28.06.2008 07:02 13,0 C 12,9 C 96 % 1019 hPa 0,0 l/m 27,1 km/h (4 Bft) W-SW45 250 0 min 3,45 klux 0,00 min 12,4 C 5,4 C
28.06.2008 07:17 13,2 C 13,0 C 96 % 1019 hPa 0,0 l/m 23,6 km/h (4 Bft) W-SW45 240 0 min 5,99 klux 0,00 min 12,6 C 6,5 C
28.06.2008 07:32 13,3 C 13,1 C 96 % 1019 hPa 0,3 l/m 22,1 km/h (4 Bft) W-SW67.5 250 0 min 3,98 klux 15,00 min 12,7 C 7,0 C
28.06.2008 07:47 13,3 C 13,1 C 96 % 1019 hPa 0,0 l/m 22,6 km/h (4 Bft) SW45 235 0 min 4,63 klux 0,00 min 12,7 C 6,9 C
28.06.2008 08:02 13,3 C 13,1 C 96 % 1019 hPa 0,0 l/m 23,9 km/h (4 Bft) W-SW22.5 250 0 min 4,63 klux 0,00 min 12,7 C 6,6 C
28.06.2008 08:17 13,4 C 13,2 C 96 % 1019 hPa 0,0 l/m 26,4 km/h (4 Bft) W22.5 260 0 min 8,39 klux 0,00 min 12,8 C 6,1 C
28.06.2008 08:32 13,6 C 13,4 C 95 % 1019 hPa 0,6 l/m 25,7 km/h (4 Bft) W-SW45 250 0 min 14,5 klux 15,00 min 12,8 C 6,6 C
28.06.2008 08:47 13,8 C 13,5 C 95 % 1019 hPa 0,0 l/m 28,5 km/h (4 Bft) W-SW45 245 0 min 12,2 klux 0,00 min 13,0 C 6,3 C
28.06.2008 09:02 13,8 C 13,5 C 95 % 1019 hPa 0,0 l/m 23,8 km/h (4 Bft) SW45 230 0 min 10,3 klux 0,00 min 13,0 C 7,2 C
28.06.2008 09:17 13,9 C 13,6 C 95 % 1019 hPa 0,0 l/m 27,1 km/h (4 Bft) W-SW45 255 0 min 11,8 klux 0,00 min 13,1 C 6,7 C
28.06.2008 09:32 14,0 C 13,7 C 95 % 1019 hPa 0,3 l/m 20,5 km/h (4 Bft) W-SW45 245 0 min 13,0 klux 15,00 min 13,2 C 8,3 C
28.06.2008 09:47 14,0 C 13,7 C 95 % 1019 hPa 0,0 l/m 25,9 km/h (4 Bft) W45 260 0 min 12,1 klux 0,00 min 13,2 C 7,1 C
28.06.2008 10:02 14,2 C 13,8 C 94 % 1019 hPa 0,0 l/m 23,5 km/h (4 Bft) W22.5 265 0 min 11,5 klux 0,00 min 13,2 C 7,9 C
28.06.2008 10:16 14,2 C 13,9 C 94 % 1019 hPa 0,0 l/m 25,5 km/h (4 Bft) W-SW22.5 255 0 min 13,7 klux 0,00 min 13,2 C 7,4 C
28.06.2008 10:31 14,4 C 14,0 C 94 % 1019 hPa 0,0 l/m 24,7 km/h (4 Bft) W45 260 0 min 15,6 klux 0,00 min 13,4 C 7,9 C
28.06.2008 10:46 14,4 C 14,1 C 94 % 1019 hPa 0,0 l/m 27,0 km/h (4 Bft) SW45 230 0 min 15,8 klux 0,00 min 13,4 C 7,4 C
28.06.2008 11:02 14,4 C 14,0 C 94 % 1019 hPa 0,0 l/m 28,6 km/h (4 Bft) W-SW45 245 0 min 13,5 klux 0,00 min 13,4 C 7,1 C
28.06.2008 11:17 14,4 C 14,1 C 94 % 1019 hPa 0,0 l/m 21,0 km/h (4 Bft) SW45 230 0 min 14,0 klux 0,00 min 13,4 C 8,7 C
28.06.2008 11:32 14,6 C 14,4 C 94 % 1019 hPa 0,0 l/m 22,5 km/h (4 Bft) W-SW22.5 250 0 min 17,1 klux 0,00 min 13,6 C 8,6 C
28.06.2008 11:46 14,8 C 14,7 C 93 % 1020 hPa 0,0 l/m 24,9 km/h (4 Bft) SW45 225 0 min 16,7 klux 0,00 min 13,7 C 8,4 C
28.06.2008 12:01 14,7 C 14,7 C 93 % 1020 hPa 0,0 l/m 29,1 km/h (5 Bft) W-SW45 245 0 min 15,0 klux 0,00 min 13,6 C 7,4 C
28.06.2008 12:16 15,0 C 14,8 C 93 % 1020 hPa 0,0 l/m 25,3 km/h (4 Bft) W-SW67.5 240 0 min 19,4 klux 0,00 min 13,9 C 8,5 C
28.06.2008 12:31 15,1 C 15,1 C 93 % 1020 hPa 0,0 l/m 20,3 km/h (4 Bft) W-SW22.5 250 0 min 17,0 klux 0,00 min 14,0 C 9,8 C
28.06.2008 12:47 15,2 C 15,0 C 92 % 1020 hPa 0,0 l/m 29,1 km/h (5 Bft) W22.5 260 0 min 13,8 klux 0,00 min 13,9 C 8,1 C
28.06.2008 13:02 15,0 C 15,0 C 92 % 1020 hPa 0,0 l/m 17,6 km/h (3 Bft) W-SW45 240 0 min 19,3 klux 0,00 min 13,7 C 10,4 C
28.06.2008 13:17 15,2 C 15,0 C 92 % 1020 hPa 0,0 l/m 26,0 km/h (4 Bft) W-SW67.5 240 0 min 22,0 klux 0,00 min 13,9 C 8,7 C
28.06.2008 13:32 15,6 C 15,4 C 92 % 1020 hPa 0,0 l/m 26,2 km/h (4 Bft) W-SW22.5 255 0 min 29,8 klux 0,00 min 14,3 C 9,2 C
28.06.2008 13:46 16,2 C 16,0 C 91 % 1020 hPa 0,0 l/m 23,8 km/h (4 Bft) W-SW22.5 250 0 min 29,2 klux 0,00 min 14,7 C 10,5 C
28.06.2008 14:01 16,6 C 16,7 C 90 % 1020 hPa 0,0 l/m 29,7 km/h (5 Bft) W-SW22.5 250 0 min 33,0 klux 0,00 min 15,0 C 10,0 C
28.06.2008 14:16 17,2 C 17,0 C 87 % 1020 hPa 0,0 l/m 19,2 km/h (3 Bft) W-SW22.5 250 0 min 41,7 klux 0,00 min 15,0 C 12,8 C
28.06.2008 14:31 17,3 C 17,3 C 87 % 1020 hPa 0,0 l/m 27,5 km/h (4 Bft) W-SW45 250 0 min 38,1 klux 0,00 min 15,1 C 11,3 C
28.06.2008 14:47 17,6 C 17,5 C 87 % 1020 hPa 0,3 l/m 27,3 km/h (4 Bft) SW45 230 0 min 43,4 klux 16,00 min 15,4 C 11,7 C
28.06.2008 15:02 18,5 C 19,5 C 85 % 1020 hPa 0,0 l/m 28,7 km/h (4 Bft) W-SW45 245 15 min 126 klux 0,00 min 15,9 C 12,8 C
28.06.2008 15:17 18,7 C 19,0 C 81 % 1020 hPa 0,0 l/m 28,0 km/h (4 Bft) W45 260 0 min 40,5 klux 0,00 min 15,4 C 13,2 C
28.06.2008 15:31 18,2 C 18,7 C 79 % 1020 hPa 0,0 l/m 30,2 km/h (5 Bft) W22.5 260 0 min 28,1 klux 0,00 min 14,5 C 12,2 C
28.06.2008 15:46 18,2 C 19,8 C 81 % 1020 hPa 0,0 l/m 36,4 km/h (5 Bft) W45 260 15 min 61,3 klux 0,00 min 14,9 C 11,4 C
28.06.2008 16:01 18,9 C 21,2 C 78 % 1020 hPa 0,0 l/m 34,1 km/h (5 Bft) W22.5 265 15 min 117 klux 0,00 min 15,0 C 12,7 C
28.06.2008 16:16 19,3 C 21,9 C 77 % 1019 hPa 0,0 l/m 34,8 km/h (5 Bft) W45 260 15 min 65,2 klux 0,00 min 15,2 C 13,2 C
28.06.2008 16:32 20,0 C 22,5 C 71 % 1019 hPa 0,0 l/m 33,1 km/h (5 Bft) W45 260 16 min 100 klux 0,00 min 14,6 C 14,4 C
28.06.2008 16:47 19,2 C 21,5 C 73 % 1019 hPa 0,0 l/m 24,4 km/h (4 Bft) W22.5 270 0 min 42,3 klux 0,00 min 14,2 C 14,4 C
28.06.2008 17:02 20,0 C 24,3 C 71 % 1019 hPa 0,0 l/m 31,3 km/h (5 Bft) W45 260 15 min 91,1 klux 0,00 min 14,6 C 14,6 C
28.06.2008 17:16 19,9 C 22,8 C 71 % 1019 hPa 0,0 l/m 29,4 km/h (5 Bft) W45 260 0 min 30,2 klux 0,00 min 14,5 C 14,7 C
28.06.2008 17:31 20,0 C 23,0 C 70 % 1019 hPa 0,0 l/m 24,8 km/h (4 Bft) W22.5 260 15 min 66,5 klux 0,00 min 14,4 C 15,4 C
28.06.2008 17:46 20,0 C 22,9 C 70 % 1019 hPa 0,0 l/m 29,6 km/h (5 Bft) W-SW45 255 15 min 80,2 klux 0,00 min 14,4 C 14,8 C
28.06.2008 18:01 19,7 C 21,4 C 71 % 1019 hPa 0,0 l/m 27,9 km/h (4 Bft) W67.5 270 15 min 70,5 klux 0,00 min 14,3 C 14,6 C
28.06.2008 18:17 19,6 C 22,7 C 69 % 1019 hPa 0,0 l/m 24,4 km/h (4 Bft) W45 270 16 min 69,8 klux 0,00 min 13,8 C 14,9 C
28.06.2008 18:32 19,8 C 23,2 C 70 % 1019 hPa 0,0 l/m 28,5 km/h (4 Bft) W67.5 265 15 min 61,8 klux 0,00 min 14,2 C 14,6 C
28.06.2008 18:47 19,6 C 22,8 C 69 % 1019 hPa 0,0 l/m 25,8 km/h (4 Bft) W-SW45 240 0 min 59,8 klux 0,00 min 13,8 C 14,7 C
28.06.2008 19:02 19,2 C 21,3 C 70 % 1019 hPa 0,0 l/m 25,3 km/h (4 Bft) SW45 235 0 min 25,2 klux 0,00 min 13,6 C 14,3 C
28.06.2008 19:16 19,5 C 23,7 C 70 % 1019 hPa 0,0 l/m 30,1 km/h (5 Bft) W45 260 0 min 45,4 klux 0,00 min 13,9 C 14,0 C
28.06.2008 19:31 19,1 C 21,1 C 70 % 1019 hPa 0,0 l/m 27,1 km/h (4 Bft) W-SW45 250 0 min 34,0 klux 0,00 min 13,5 C 13,8 C
28.06.2008 19:46 18,7 C 20,8 C 71 % 1019 hPa 0,0 l/m 24,7 km/h (4 Bft) W-SW45 250 0 min 21,1 klux 0,00 min 13,3 C 13,7 C
28.06.2008 20:01 18,4 C 19,9 C 72 % 1019 hPa 0,0 l/m 19,6 km/h (3 Bft) W-SW22.5 255 0 min 28,2 klux 0,00 min 13,3 C 14,2 C
28.06.2008 20:17 18,2 C 20,6 C 73 % 1019 hPa 0,0 l/m 23,5 km/h (4 Bft) W-SW45 250 0 min 25,1 klux 0,00 min 13,3 C 13,2 C
28.06.2008 20:32 17,7 C 18,9 C 74 % 1019 hPa 0,0 l/m 16,8 km/h (3 Bft) W-SW22.5 240 0 min 13,1 klux 0,00 min 13,0 C 14,0 C
28.06.2008 20:47 17,4 C 18,5 C 76 % 1019 hPa 0,0 l/m 9,8 km/h (2 Bft) SW22.5 235 0 min 13,5 klux 0,00 min 13,1 C 15,8 C
28.06.2008 21:01 17,6 C 18,1 C 77 % 1019 hPa 0,0 l/m 7,2 km/h (2 Bft) W-SW22.5 240 0 min 15,2 klux 0,00 min 13,5 C 17,2 C
28.06.2008 21:16 17,2 C 17,4 C 77 % 1019 hPa 0,0 l/m 9,0 km/h (2 Bft) W-SW22.5 240 0 min 4,00 klux 0,00 min 13,1 C 16,0 C
28.06.2008 21:31 16,8 C 16,8 C 78 % 1019 hPa 0,0 l/m 3,1 km/h (1 Bft) W-SW 250 0 min 2,07 klux 0,00 min 12,9 C 16,8 C
28.06.2008 21:46 16,5 C 15,9 C 79 % 1019 hPa 0,0 l/m 0,0 km/h (0 Bft) SW 215 0 min 1,41 klux 0,00 min 12,8 C 16,5 C
28.06.2008 22:02 16,2 C 15,4 C 80 % 1019 hPa 0,0 l/m 0,6 km/h (0 Bft) SW 215 0 min 491 lux 0,00 min 12,7 C 16,2 C
28.06.2008 22:17 15,8 C 15,1 C 81 % 1019 hPa 0,0 l/m 0,0 km/h (0 Bft) W-SW 240 0 min 102 lux 0,00 min 12,5 C 15,8 C
28.06.2008 22:32 15,7 C 15,2 C 82 % 1019 hPa 0,0 l/m 4,6 km/h (1 Bft) W-SW 255 0 min 12 lux 0,00 min 12,6 C 15,7 C
28.06.2008 22:46 15,2 C 14,0 C 82 % 1019 hPa 0,0 l/m 4,3 km/h (1 Bft) W-SW 255 0 min 6 lux 0,00 min 12,1 C 15,2 C
28.06.2008 23:01 14,5 C 13,1 C 83 % 1019 hPa 0,0 l/m 0,0 km/h (0 Bft) W-SW 245 0 min 0 lux 0,00 min 11,6 C 14,5 C
28.06.2008 23:16 13,8 C 12,3 C 85 % 1019 hPa 0,0 l/m 0,0 km/h (0 Bft) W-SW 250 0 min 0 lux 0,00 min 11,3 C 13,8 C
28.06.2008 23:31 13,3 C 12,0 C 86 % 1019 hPa 0,0 l/m 0,0 km/h (0 Bft) W-SW 250 0 min 0 lux 0,00 min 11,0 C 13,3 C
28.06.2008 23:46 13,1 C 11,8 C 87 % 1019 hPa 0,0 l/m 0,0 km/h (0 Bft) W-SW 250 0 min 0 lux 0,00 min 11,0 C 13,1 C
28.06.2008 23:56 13,0 C 12,0 C 89 % 1019 hPa 0,0 l/m 0,0 km/h (0 Bft) W-SW 250 0 min 0 lux 0,00 min 11,2 C 13,0 C
_ Min-Zeit 00:16 00:01 18:17 05:47 - 21:46 - - - - - 00:01 05:17
Minimum _ 12,0 C 11,6 C 69 % 1018 hPa - 0,0 km/h (0 Bft) - - - - - 10,8 C 2,9 C
_ Max-Zeit 16:32 17:02 06:02 00:01 08:32 05:17 - - 16:32 15:02 14:47 15:02 21:01
Maximum _ 20,0 C 24,3 C 96 % 1020 hPa 0,6 l/m 43,6 km/h
W-SW (6 Bft)
- - 16 min 126 klux 16,00 min 15,9 C 17,2 C
Durchschnitt _ 15,3 C 15,6 C 87 % 1019 hPa #2,1 l/m 21,9 km/h (4 Bft) W-SW - #2:47 h 19,5 klux #1:31 h 13,0 C 10,0 C